GFSNE_925_temp_042.txt.gz
Temp
4 4 4 4 4 3 3 3 2 1 1 3 3 3 4 3 2 2 1 1 1 1 1 1 1 1 1 1 1 1 1 1 1 2 2 3 4 4
3 3 3 3 3 3 3 3 3 3 1 3 3 3 2 1 0 0 0 0 0 0 0 1 1 1 1 1 1 1 0 1 1 1 1 2 3 4
3 3 3 3 3 3 3 2 2 2 1 1 1 1 0 -0 -1 -1 -1 -1 -0 0 0 0 0 0 0 0 0 1 1 0 0 0 1 1 2 3
3 3 3 2 2 2 1 0 -1 -1 -0 -1 -0 -1 -1 -1 -1 -1 -1 -1 -1 -0 -0 0 0 -0 -0 0 0 0 1 0 0 1 1 0 1 1
3 2 2 1 1 0 -1 -2 -2 -2 -2 -2 -2 -2 -2 -2 -2 -2 -2 -1 -1 -1 -0 0 0 -0 -1 -1 -1 0 0 -0 -0 0 0 0 0 1
2 2 1 1 0 -1 -2 -3 -3 -3 -4 -4 -4 -3 -3 -3 -2 -2 -2 -2 -2 -2 -1 -1 -1 -1 -0 -1 -0 0 0 -1 -0 0 -0 0 1 1
1 1 1 0 -0 -1 -2 -3 -4 -4 -5 -5 -4 -4 -4 -3 -3 -3 -4 -4 -3 -2 -2 -1 -1 -1 -1 -1 -1 -1 -0 -1 -0 -1 -1 -0 1 1
0 0 -0 -0 -1 -1 -3 -4 -4 -4 -5 -5 -5 -5 -4 -4 -5 -4 -4 -4 -4 -3 -2 -3 -2 -2 -1 -1 -2 -2 -2 -2 -1 -0 -1 -1 -0 0
-0 -0 -1 -1 -1 -2 -3 -4 -5 -5 -5 -5 -5 -5 -5 -4 -5 -5 -5 -5 -4 -4 -3 -3 -2 -2 -1 -1 -1 -1 -1 -1 -1 -1 0 -1 -0 -0
-1 -1 -1 -1 -2 -3 -4 -5 -6 -6 -5 -4 -4 -5 -5 -5 -5 -5 -5 -5 -5 -4 -3 -3 -2 -2 -2 -2 -1 -1 -1 -1 -1 -1 -1 -1 -1 -1
-2 -2 -2 -2 -3 -4 -5 -7 -7 -7 -6 -5 -6 -6 -5 -5 -5 -5 -5 -5 -4 -4 -3 -3 -2 -2 -2 -1 -1 -1 -1 -1 -1 -1 -1 -1 -1 -1
-3 -3 -3 -3 -4 -6 -7 -8 -8 -8 -7 -7 -7 -6 -5 -5 -5 -5 -5 -5 -5 -4 -2 -3 -3 -3 -3 -1 -1 -1 -1 -1 -1 -1 -1 -1 -1 -1
-4 -4 -3 -5 -5 -5 -7 -8 -8 -7 -7 -7 -6 -6 -6 -5 -5 -5 -5 -5 -4 -4 -4 -3 -3 -3 -2 -1 -1 -1 -0 -1 -1 -1 -1 -1 -2 -1
-5 -5 -4 -5 -5 -7 -6 -6 -6 -7 -7 -7 -7 -6 -6 -6 -6 -5 -5 -5 -4 -4 -4 -4 -3 -3 -3 -2 -2 -2 -1 -0 -1 -1 -1 -1 -1 -1
-4 -5 -5 -5 -6 -6 -5 -5 -6 -6 -6 -6 -7 -6 -6 -6 -6 -6 -5 -5 -4 -3 -3 -3 -3 -3 -3 -3 -3 -3 -2 -1 -1 -1 -1 -1 -1 -1
-4 -5 -5 -5 -5 -5 -5 -4 -5 -5 -6 -6 -7 -7 -7 -6 -6 -6 -6 -5 -5 -4 -4 -3 -3 -3 -3 -3 -3 -3 -2 -2 -2 -1 -1 -1 -0 0
-5 -5 -5 -5 -4 -4 -4 -4 -5 -5 -6 -6 -7 -7 -7 -7 -7 -6 -6 -6 -5 -5 -4 -4 -3 -3 -4 -4 -4 -3 -3 -2 -2 -1 -1 -1 -0 -0
-5 -6 -5 -5 -4 -5 -5 -5 -5 -5 -6 -7 -7 -7 -7 -8 -8 -7 -6 -6 -6 -5 -5 -4 -4 -4 -3 -4 -4 -4 -3 -2 -2 -1 -1 -1 -1 -1
-6 -6 -6 -5 -4 -5 -5 -4 -5 -5 -6 -7 -7 -8 -8 -8 -8 -7 -7 -6 -6 -6 -5 -4 -5 -5 -5 -3 -4 -4 -3 -3 -2 -1 -2 -2 -3 -2
-6 -6 -6 -5 -4 -4 -4 -4 -5 -6 -7 -8 -8 -8 -8 -8 -8 -7 -8 -7 -7 -6 -5 -5 -5 -5 -6 -5 -4 -4 -4 -3 -2 -3 -2 -3 -3 -3
-5 -5 -5 -5 -5 -4 -4 -5 -6 -7 -7 -7 -8 -8 -8 -8 -8 -8 -7 -8 -7 -7 -7 -6 -6 -5 -5 -4 -4 -4 -5 -4 -3 -3 -3 -3 -3 -3
-4 -4 -4 -4 -4 -4 -5 -5 -6 -6 -7 -7 -8 -8 -8 -8 -9 -8 -8 -8 -8 -8 -7 -7 -6 -6 -5 -4 -5 -4 -5 -5 -4 -4 -4 -3 -4 -4
-4 -4 -4 -4 -4 -4 -5 -5 -6 -6 -7 -7 -8 -8 -8 -9 -9 -8 -8 -8 -8 -8 -9 -8 -7 -5 -5 -4 -4 -4 -4 -4 -4 -5 -5 -5 -4 -4

GFSNE_925_temp_048.txt.gz
Temp
3 3 3 3 3 2 2 1 0 -1 -2 0 -0 -1 -1 -1 -1 -1 -1 -1 -1 -1 -1 -1 -1 -1 -0 0 0 0 1 1 1 2 2 2 2 2
3 2 2 2 2 2 1 1 0 -1 -4 -1 -2 -2 -3 -3 -3 -3 -3 -3 -2 -2 -2 -2 -2 -1 -1 -1 -1 -0 0 0 1 1 2 2 2 2
2 2 2 2 2 1 1 1 -0 -1 -3 -3 -3 -3 -3 -4 -4 -4 -4 -3 -3 -3 -3 -2 -2 -2 -2 -1 -1 -1 -1 -1 -0 0 1 1 1 1
2 2 2 1 1 1 0 -0 -1 -2 -3 -4 -4 -4 -4 -4 -5 -4 -4 -4 -4 -4 -3 -3 -3 -3 -2 -2 -2 -2 -1 -1 -1 -1 -1 -0 -0 0
2 1 1 1 1 0 -0 -1 -2 -2 -3 -4 -5 -5 -5 -5 -5 -5 -5 -5 -4 -4 -4 -4 -4 -3 -3 -3 -2 -2 -1 -1 -1 -1 -1 -1 -1 -1
2 1 1 0 -0 -1 -1 -2 -3 -3 -4 -4 -5 -6 -6 -6 -6 -6 -6 -5 -6 -5 -4 -4 -5 -4 -3 -3 -3 -2 -2 -2 -1 -1 -0 -0 -1 -0
1 1 0 -0 -1 -1 -1 -2 -3 -4 -5 -5 -6 -6 -6 -6 -6 -6 -6 -6 -6 -5 -5 -4 -5 -4 -3 -3 -3 -2 -2 -2 -2 -1 -1 -1 -1 -1
0 -0 -0 -1 -1 -1 -2 -3 -3 -5 -6 -6 -7 -7 -7 -7 -7 -7 -7 -7 -6 -5 -5 -5 -5 -4 -3 -3 -3 -2 -2 -2 -2 -2 -2 -2 -1 -1
-1 -1 -1 -1 -2 -2 -3 -3 -4 -4 -5 -6 -7 -7 -7 -7 -7 -7 -7 -7 -6 -6 -6 -6 -5 -5 -3 -3 -2 -2 -2 -2 -2 -2 -2 -1 -1 -1
-1 -3 -2 -2 -2 -3 -3 -4 -4 -4 -5 -7 -7 -7 -7 -7 -7 -6 -6 -6 -6 -6 -6 -6 -4 -4 -3 -3 -2 -2 -1 -2 -2 -2 -2 -1 -1 -2
-2 -3 -2 -3 -3 -3 -4 -5 -5 -5 -6 -7 -7 -7 -7 -7 -6 -6 -6 -7 -6 -6 -5 -6 -4 -4 -4 -2 -1 -2 -2 -2 -2 -2 -1 -1 -2 -2
-2 -3 -3 -3 -4 -4 -5 -5 -6 -6 -6 -6 -6 -6 -7 -7 -7 -7 -7 -7 -7 -6 -5 -6 -5 -5 -4 -2 -2 -2 -2 -2 -2 -1 -1 -1 -2 -2
-2 -3 -3 -4 -4 -5 -5 -5 -6 -6 -6 -6 -7 -6 -7 -7 -7 -7 -7 -7 -7 -7 -5 -6 -5 -5 -4 -4 -3 -2 -2 -3 -2 -1 -1 -1 -2 -2
-2 -3 -3 -4 -4 -5 -5 -5 -5 -6 -6 -6 -6 -6 -7 -7 -7 -7 -7 -7 -6 -7 -5 -6 -5 -4 -4 -4 -4 -3 -3 -3 -3 -2 -1 -2 -2 -2
-2 -3 -3 -4 -4 -5 -5 -5 -5 -5 -5 -6 -6 -6 -7 -7 -7 -8 -7 -7 -6 -6 -5 -5 -6 -6 -5 -4 -4 -4 -4 -3 -3 -2 -2 -1 -2 -2
-3 -3 -4 -4 -5 -5 -5 -5 -5 -5 -5 -5 -6 -7 -7 -8 -8 -8 -8 -8 -7 -7 -5 -5 -5 -5 -6 -4 -5 -4 -4 -4 -3 -3 -2 -2 -2 -2
-3 -3 -4 -5 -5 -5 -5 -5 -5 -5 -5 -5 -6 -7 -7 -8 -8 -8 -8 -8 -8 -8 -8 -6 -6 -5 -5 -4 -4 -4 -4 -4 -3 -2 -2 -2 -2 -2
-4 -5 -6 -5 -5 -5 -6 -5 -5 -5 -5 -5 -6 -7 -8 -8 -8 -8 -8 -8 -9 -8 -8 -7 -7 -6 -5 -5 -5 -5 -4 -4 -3 -2 -2 -2 -3 -2
-4 -5 -5 -5 -5 -5 -6 -6 -5 -5 -5 -5 -6 -7 -8 -8 -8 -9 -8 -8 -8 -8 -8 -8 -8 -8 -7 -8 -5 -5 -5 -4 -3 -2 -3 -3 -3 -3
-4 -5 -6 -6 -5 -5 -5 -5 -5 -5 -5 -6 -6 -7 -8 -8 -9 -9 -9 -9 -9 -8 -8 -8 -8 -9 -8 -8 -6 -5 -5 -5 -4 -4 -5 -5 -4 -3
-4 -5 -5 -6 -5 -5 -5 -5 -5 -5 -5 -6 -6 -7 -8 -8 -9 -9 -9 -9 -9 -9 -9 -9 -8 -7 -6 -5 -6 -5 -6 -6 -5 -4 -4 -4 -4 -4
-4 -4 -5 -5 -5 -5 -5 -5 -5 -5 -6 -6 -6 -7 -7 -8 -9 -9 -9 -9 -9 -9 -9 -9 -7 -6 -6 -6 -5 -5 -6 -6 -6 -5 -5 -5 -5 -5
-4 -4 -4 -4 -5 -5 -5 -5 -5 -5 -5 -6 -6 -7 -7 -8 -9 -9 -9 -9 -9 -9 -9 -9 -8 -7 -7 -7 -7 -6 -5 -6 -6 -6 -6 -6 -5 -5

GFSNE_925_temp_051.txt.gz
Temp
3 3 2 2 2 2 2 1 0 -3 -3 -0 0 -0 -2 -2 -3 -3 -3 -3 -3 -3 -3 -2 -2 -2 -1 -1 -1 -0 0 1 1 1 2 2 2 2
3 2 2 2 2 2 2 1 1 -0 -3 -1 -1 -2 -3 -3 -4 -4 -4 -4 -4 -4 -3 -3 -3 -2 -2 -2 -1 -1 -1 -0 0 1 1 1 2 3
3 2 2 2 2 1 1 1 -0 -1 -3 -2 -2 -3 -3 -4 -4 -4 -4 -4 -4 -4 -4 -4 -3 -3 -3 -3 -2 -2 -2 -1 -1 -0 -0 0 1 1
3 2 2 1 1 1 0 -0 -1 -1 -2 -4 -4 -4 -4 -4 -5 -5 -5 -5 -5 -5 -5 -4 -4 -4 -4 -3 -3 -3 -2 -2 -2 -1 -1 -1 -0 0
3 2 2 1 1 1 0 -1 -1 -2 -3 -4 -5 -5 -5 -5 -5 -6 -6 -5 -5 -6 -5 -5 -5 -4 -5 -4 -3 -3 -3 -2 -2 -2 -2 -1 -1 -1
2 1 1 1 0 0 -1 -1 -2 -2 -3 -4 -5 -6 -6 -6 -6 -6 -7 -6 -6 -6 -4 -5 -5 -5 -4 -4 -4 -3 -3 -3 -2 -2 -2 -2 -1 -0
2 1 0 0 -0 -1 -1 -1 -2 -3 -4 -5 -6 -7 -7 -7 -7 -7 -7 -7 -7 -6 -5 -5 -5 -4 -3 -3 -3 -3 -3 -3 -3 -3 -2 -2 -2 -1
2 1 -0 -0 -1 -1 -1 -2 -3 -4 -5 -6 -6 -7 -8 -7 -7 -8 -8 -8 -6 -6 -6 -6 -6 -5 -4 -3 -3 -3 -3 -3 -3 -3 -2 -2 -2 -2
1 -0 -1 -1 -2 -2 -2 -3 -4 -4 -5 -6 -7 -7 -7 -7 -7 -8 -7 -7 -6 -6 -6 -6 -6 -5 -4 -4 -3 -3 -3 -3 -2 -2 -2 -2 -2 -2
0 -1 -1 -2 -2 -3 -3 -4 -4 -5 -5 -5 -6 -7 -7 -7 -7 -7 -7 -7 -7 -7 -6 -7 -6 -5 -4 -4 -2 -2 -2 -2 -2 -2 -2 -2 -2 -2
-0 -1 -2 -3 -3 -3 -4 -4 -5 -5 -5 -6 -7 -7 -7 -7 -7 -7 -7 -8 -7 -7 -6 -7 -5 -6 -5 -3 -2 -2 -2 -2 -2 -2 -2 -2 -2 -2
-1 -1 -2 -3 -3 -3 -4 -5 -6 -5 -6 -6 -6 -6 -6 -6 -7 -7 -7 -9 -8 -7 -6 -6 -6 -6 -5 -3 -2 -3 -2 -3 -3 -3 -2 -2 -1 -2
-1 -1 -2 -2 -3 -4 -5 -5 -5 -5 -6 -6 -6 -6 -6 -6 -7 -7 -7 -8 -9 -8 -7 -7 -7 -6 -5 -4 -4 -4 -3 -3 -3 -4 -3 -2 -1 -2
-1 -1 -2 -2 -4 -4 -5 -5 -5 -6 -6 -6 -6 -6 -6 -7 -7 -8 -8 -7 -7 -8 -7 -7 -7 -7 -6 -5 -5 -4 -4 -4 -4 -4 -3 -2 -1 -2
-1 -1 -2 -3 -4 -4 -4 -5 -5 -5 -6 -6 -6 -5 -6 -7 -7 -8 -8 -7 -7 -7 -7 -7 -7 -7 -7 -6 -5 -4 -5 -4 -4 -4 -3 -2 -2 -2
-1 -2 -2 -3 -4 -4 -5 -5 -5 -5 -5 -5 -5 -5 -6 -7 -8 -8 -8 -8 -8 -8 -7 -6 -6 -7 -7 -6 -5 -4 -4 -5 -4 -3 -2 -2 -2 -2
-2 -2 -3 -4 -5 -5 -5 -5 -5 -5 -5 -5 -5 -6 -6 -7 -8 -8 -8 -8 -9 -9 -9 -7 -7 -6 -5 -5 -5 -5 -5 -5 -4 -3 -2 -2 -2 -3
-3 -4 -5 -5 -5 -5 -6 -5 -5 -5 -6 -5 -5 -6 -6 -7 -8 -8 -9 -9 -9 -9 -9 -8 -8 -8 -6 -5 -5 -5 -6 -5 -4 -4 -4 -3 -3 -3
-4 -4 -5 -5 -5 -5 -5 -5 -5 -5 -5 -6 -5 -6 -6 -8 -8 -9 -9 -9 -9 -9 -9 -9 -9 -9 -8 -9 -5 -6 -6 -5 -4 -5 -5 -5 -5 -4
-3 -4 -5 -5 -5 -5 -5 -6 -5 -5 -5 -5 -5 -6 -7 -8 -8 -9 -9 -9 -9 -9 -9 -9 -9 -9 -9 -8 -7 -6 -6 -6 -6 -5 -5 -5 -4 -4
-3 -4 -5 -5 -5 -5 -5 -5 -5 -5 -5 -5 -5 -6 -7 -8 -8 -8 -9 -9 -9 -9 -10 -10 -8 -8 -7 -6 -7 -6 -6 -6 -6 -6 -6 -5 -4 -4
-4 -4 -4 -4 -5 -5 -5 -5 -5 -5 -5 -6 -6 -6 -7 -8 -8 -8 -9 -9 -9 -9 -10 -9 -8 -7 -7 -7 -6 -6 -6 -6 -6 -6 -6 -6 -6 -6
-4 -4 -4 -4 -5 -5 -5 -5 -5 -5 -5 -5 -5 -6 -7 -8 -8 -9 -9 -9 -9 -9 -10 -9 -9 -8 -8 -8 -8 -7 -7 -6 -6 -6 -6 -6 -6 -6

GFSNE_925_temp_054.txt.gz
Temp
4 3 3 2 2 2 2 2 0 -1 -1 0 -0 -0 -0 -2 -2 -3 -3 -3 -4 -4 -4 -4 -3 -2 -2 -2 -1 -1 -0 -0 0 1 1 1 2 2
4 3 3 2 2 2 2 2 1 0 -2 -1 -1 -1 -2 -3 -3 -4 -4 -4 -4 -4 -5 -4 -4 -3 -3 -3 -2 -2 -1 -1 -0 -0 0 0 1 2
3 3 2 2 2 2 1 1 0 -1 -3 -2 -2 -2 -3 -3 -4 -4 -5 -5 -5 -5 -5 -5 -4 -4 -4 -4 -3 -3 -2 -2 -2 -1 -1 -0 0 1
3 3 3 2 2 1 1 0 -0 -1 -2 -3 -3 -4 -4 -4 -4 -5 -5 -5 -5 -5 -5 -5 -5 -5 -5 -4 -4 -4 -3 -3 -2 -2 -2 -1 -1 -0
3 3 2 1 1 1 1 0 -1 -1 -2 -4 -4 -5 -5 -4 -5 -6 -6 -6 -6 -6 -5 -5 -5 -4 -5 -5 -4 -4 -4 -3 -3 -3 -3 -2 -2 -2
3 2 2 1 1 1 0 -0 -1 -2 -2 -3 -4 -5 -5 -5 -6 -7 -7 -7 -7 -6 -5 -5 -5 -5 -4 -4 -4 -4 -4 -4 -4 -3 -3 -3 -2 -2
3 2 2 1 0 -0 -0 -1 -1 -2 -3 -4 -5 -6 -6 -7 -7 -7 -8 -8 -8 -6 -6 -6 -6 -5 -4 -3 -3 -3 -3 -3 -4 -4 -3 -3 -3 -2
2 2 1 0 -0 -1 -1 -1 -2 -2 -3 -5 -5 -7 -7 -7 -7 -8 -8 -8 -6 -6 -7 -7 -7 -6 -5 -4 -3 -4 -5 -4 -4 -4 -3 -3 -3 -2
2 2 1 0 -0 -1 -2 -2 -3 -3 -4 -5 -5 -6 -7 -7 -7 -8 -8 -7 -7 -7 -7 -7 -7 -7 -5 -4 -3 -5 -5 -4 -3 -3 -2 -2 -2 -2
2 1 0 -1 -1 -2 -3 -3 -3 -4 -4 -5 -5 -6 -7 -7 -7 -7 -8 -8 -8 -8 -7 -7 -7 -6 -6 -4 -2 -2 -2 -2 -2 -2 -2 -2 -2 -2
1 1 0 -1 -1 -2 -3 -3 -4 -4 -4 -5 -6 -6 -7 -7 -7 -7 -7 -8 -8 -8 -7 -8 -7 -7 -6 -4 -2 -2 -2 -3 -3 -3 -3 -3 -3 -3
1 1 0 -1 -2 -2 -3 -3 -4 -4 -5 -5 -6 -6 -6 -6 -6 -7 -7 -9 -9 -8 -6 -7 -7 -7 -6 -4 -4 -4 -4 -4 -4 -3 -3 -4 -4 -4
1 0 0 -1 -2 -2 -4 -4 -4 -4 -5 -6 -6 -6 -6 -6 -6 -7 -7 -8 -9 -9 -8 -8 -8 -8 -7 -6 -5 -5 -4 -4 -4 -3 -3 -4 -3 -3
0 0 -0 -1 -1 -2 -3 -4 -4 -5 -6 -6 -6 -6 -6 -6 -6 -7 -8 -8 -8 -8 -8 -8 -8 -8 -7 -7 -6 -5 -5 -4 -4 -4 -4 -4 -2 -2
-0 -0 -1 -1 -2 -2 -3 -4 -5 -5 -6 -6 -6 -6 -6 -5 -6 -7 -8 -8 -8 -7 -8 -8 -8 -8 -8 -7 -7 -6 -5 -4 -4 -4 -3 -3 -3 -3
-1 -1 -1 -1 -2 -2 -3 -4 -5 -5 -6 -6 -6 -5 -5 -6 -6 -7 -8 -8 -9 -8 -7 -7 -8 -8 -9 -8 -7 -5 -5 -5 -4 -4 -4 -3 -3 -3
-2 -2 -3 -4 -4 -4 -5 -5 -5 -5 -6 -6 -6 -6 -6 -6 -7 -7 -8 -9 -9 -9 -9 -8 -8 -8 -7 -7 -7 -6 -6 -6 -5 -5 -5 -4 -3 -3
-3 -4 -4 -5 -5 -5 -5 -5 -5 -5 -5 -6 -6 -6 -6 -6 -7 -8 -9 -9 -9 -9 -9 -9 -9 -9 -8 -5 -6 -6 -6 -6 -5 -5 -5 -5 -4 -4
-3 -3 -4 -5 -5 -5 -5 -5 -5 -5 -5 -6 -6 -6 -6 -6 -7 -8 -9 -9 -9 -9 -9 -9 -10 -9 -8 -8 -6 -6 -7 -6 -6 -5 -5 -5 -5 -5
-3 -3 -4 -4 -4 -5 -6 -5 -5 -5 -5 -6 -6 -6 -6 -6 -7 -8 -9 -9 -10 -10 -9 -9 -9 -10 -9 -8 -8 -6 -7 -7 -7 -7 -7 -5 -4 -4
-3 -3 -4 -4 -4 -5 -5 -6 -5 -6 -5 -6 -6 -6 -6 -7 -7 -8 -9 -9 -10 -10 -10 -10 -9 -8 -7 -8 -7 -7 -6 -6 -7 -7 -7 -6 -5 -5
-4 -5 -4 -4 -4 -5 -5 -5 -6 -6 -6 -6 -6 -6 -6 -6 -7 -8 -9 -9 -9 -9 -10 -9 -9 -8 -8 -7 -7 -7 -6 -6 -6 -6 -6 -6 -6 -5
-10 -8 -6 -4 -4 -5 -5 -6 -6 -6 -6 -5 -6 -6 -6 -7 -7 -8 -9 -9 -10 -10 -10 -10 -9 -9 -8 -9 -8 -8 -8 -7 -6 -6 -6 -6 -6 -6

GFSNE_925_temp_057.txt.gz
Temp
5 4 3 3 2 2 2 3 3 4 5 4 2 1 0 -0 -1 -2 -2 -3 -3 -3 -4 -4 -4 -3 -3 -2 -2 -1 -1 -1 -0 0 1 1 1 1
4 4 3 3 2 2 2 2 2 2 3 3 2 0 -1 -1 -2 -3 -3 -4 -4 -4 -4 -5 -4 -4 -4 -3 -3 -3 -2 -2 -1 -1 -0 0 0 1
4 4 3 2 2 2 1 1 1 1 2 2 1 -1 -1 -2 -2 -3 -4 -4 -4 -4 -5 -5 -5 -5 -4 -4 -4 -4 -3 -3 -2 -2 -1 -1 -0 0
4 3 2 2 2 1 1 1 1 1 0 1 1 -1 -2 -2 -3 -4 -4 -4 -4 -4 -5 -5 -5 -5 -5 -4 -4 -4 -4 -3 -3 -3 -2 -2 -1 -1
3 3 2 2 2 2 1 1 1 0 -0 -1 -0 -1 -2 -3 -3 -3 -4 -4 -4 -5 -5 -5 -5 -5 -5 -5 -5 -4 -4 -4 -4 -3 -3 -3 -3 -2
3 2 2 2 2 2 1 1 0 -0 -0 -1 -1 -1 -2 -2 -4 -4 -3 -4 -4 -4 -5 -5 -5 -5 -5 -5 -5 -4 -4 -4 -4 -4 -4 -3 -3 -3
3 3 2 2 2 1 0 0 -0 -1 -1 -1 -1 -1 -2 -2 -3 -4 -4 -4 -4 -4 -4 -4 -4 -4 -4 -4 -4 -4 -4 -5 -4 -4 -4 -3 -3 -3
3 2 2 2 2 1 0 -0 -1 -1 -1 -1 -1 -2 -2 -3 -4 -4 -5 -4 -3 -4 -4 -4 -4 -4 -4 -3 -4 -4 -5 -5 -4 -4 -4 -3 -3 -3
2 2 2 2 1 -0 -1 -1 -1 -2 -2 -2 -3 -3 -3 -4 -4 -5 -5 -5 -4 -5 -5 -5 -4 -4 -4 -4 -4 -4 -3 -3 -3 -4 -3 -3 -2 -2
2 2 1 1 0 -0 -1 -2 -2 -2 -3 -4 -4 -4 -4 -5 -5 -5 -6 -6 -5 -5 -5 -5 -4 -4 -4 -4 -4 -3 -3 -3 -3 -3 -3 -3 -3 -3
2 2 1 0 0 0 -2 -3 -2 -2 -4 -4 -4 -5 -5 -6 -6 -6 -5 -5 -5 -5 -5 -5 -4 -5 -5 -4 -3 -3 -4 -4 -3 -3 -3 -3 -3 -3
1 1 1 1 0 0 -2 -3 -3 -3 -3 -4 -5 -5 -5 -6 -6 -6 -6 -6 -5 -5 -4 -6 -6 -5 -5 -4 -4 -4 -4 -4 -4 -4 -4 -3 -3 -3
0 0 -0 1 1 -0 -1 -3 -3 -3 -4 -4 -4 -4 -5 -5 -5 -5 -6 -6 -6 -6 -5 -7 -6 -6 -5 -5 -5 -4 -4 -3 -3 -3 -3 -3 -4 -4
-1 -0 -1 0 0 -0 -1 -2 -2 -3 -5 -5 -5 -5 -5 -5 -5 -5 -6 -6 -7 -7 -7 -7 -7 -7 -7 -6 -5 -4 -4 -4 -3 -3 -3 -3 -3 -3
-2 -2 -1 -0 -0 -1 -1 -2 -3 -4 -5 -5 -5 -4 -5 -5 -5 -6 -7 -7 -7 -7 -7 -7 -7 -7 -6 -6 -5 -4 -4 -3 -3 -4 -4 -4 -3 -3
-3 -3 -3 -3 -3 -3 -3 -3 -3 -4 -4 -5 -4 -4 -5 -6 -6 -6 -6 -7 -7 -7 -7 -8 -8 -7 -7 -6 -5 -5 -4 -4 -4 -4 -4 -4 -3 -3
-4 -4 -3 -3 -3 -4 -4 -4 -4 -4 -5 -5 -5 -5 -6 -6 -6 -6 -7 -7 -7 -6 -6 -7 -7 -7 -7 -7 -6 -5 -4 -4 -4 -4 -4 -4 -3 -4
-4 -3 -3 -3 -3 -3 -4 -4 -4 -5 -5 -5 -5 -6 -6 -6 -6 -6 -7 -7 -7 -7 -7 -7 -7 -7 -5 -5 -6 -5 -4 -5 -4 -4 -4 -4 -2 -3
-4 -3 -3 -3 -3 -4 -4 -4 -4 -4 -5 -5 -6 -6 -6 -6 -6 -6 -6 -7 -7 -7 -7 -7 -7 -7 -5 -4 -5 -6 -6 -5 -5 -4 -4 -4 -4 -3
-4 -3 -3 -3 -3 -4 -4 -4 -4 -5 -6 -6 -6 -6 -6 -6 -6 -6 -6 -7 -7 -7 -7 -7 -7 -7 -6 -5 -6 -6 -7 -6 -6 -5 -5 -5 -4 -4
-10 -10 -7 -4 -4 -4 -4 -4 -5 -5 -5 -6 -6 -6 -6 -6 -6 -6 -6 -8 -8 -8 -7 -6 -7 -8 -8 -7 -6 -5 -6 -6 -7 -7 -6 -4 -3 -3
-12 -12 -11 -10 -8 -4 -4 -4 -5 -5 -6 -6 -6 -6 -6 -7 -6 -6 -7 -7 -7 -7 -7 -8 -8 -7 -7 -6 -5 -5 -5 -6 -6 -6 -7 -7 -6 -3
-14 -14 -13 -12 -11 -9 -7 -5 -5 -5 -6 -6 -6 -6 -7 -7 -7 -7 -7 -8 -8 -8 -8 -8 -8 -8 -7 -7 -7 -6 -6 -6 -6 -5 -6 -6 -6 -6